Location: Eboldshausen
(51.7766°N, 10.0050°E)
Time: 07:38:25
(UTC+00:00)

Cosmos 1092 Rocket - Pass Details

Date: 15 November 2025
Orbit: 953 x 995 km, 82.9° (Epoch: 13 December)

Event Time Altitude Azimuth Distance (km) Brightness Sun altitude
Rises 18:37:42 0° 349° (NNW) 3,703 7.2 -28.9°
Reaches altitude 10° 18:40:14 10° 348° (NNW) 2,745 6.5 -29.3°
Maximum altitude 18:46:32 80° 264° (W) 992 4.0 -30.2°
Enters shadow 18:47:14 70° 201° (SSW) 1,030 4.0 -30.4°
